xiamen , China , ASIA

  • Sunday
    August 25

      Moderate rain

      79 °F

      South

      4~5L 

  • Monday
    August 26

    Light rain  Light rain

    88 °F  79 °F

    South  Southwest

    3~4L    

  • Tuesday
    August 27

    Cloudy  Cloudy

    91 °F  79 °F

    South  North

    3~4L    

  • Wednesday
    August 28

    Cloudy  Cloudy

    93 °F  79 °F

    Southeast  Southwest

        

  • Thursday
    August 29

    Cloudy  Cloudy

    91 °F  79 °F

    South  East

        

  • Friday
    August 30

    Moderate rain  Moderate rain

    86 °F  77 °F

    East  Northeast

    4~5L   3~4L 

  • Saturday
    August 31

    Moderate rain  Moderate rain

    84 °F  77 °F

    Northeast  Northeast

    4~5L   3~4L 

Date   Weather Temperature Humidity Total_rain Visibility Wind
23:00 Light rain 79°F 94.1% 2.9mm 999.9km Southeast  3.0m/s
02:00 Moderate rain 80°F 94.8% 3.5mm 999.9km Southeast  3.3m/s
05:00 Moderate rain 80°F 95.3% 4.7mm 999.9km Southwest  4.7m/s
08:00 Moderate rain 84°F 90.7% 3.7mm 999.9km Southwest  4.5m/s
11:00 Moderate rain 87°F 79.9% 3.2mm 999.9km Southwest  3.7m/s
14:00 Light rain 87°F 84.3% 1.9mm 999.9km Southwest  3.8m/s
17:00 Cloudy 86°F 84.9% 0mm 999.9km Southeast  4.0m/s
20:00 Light rain 85°F 74.6% 0.1mm 999.9km Southeast  2.6m/s
23:00 Light rain 82°F 89.3% 0.6mm 999.9km Southeast  1.8m/s
02:00 Light rain 80°F 92.2% 0.5mm 999.9km Southwest  1.5m/s
05:00 Cloudy 79°F 93.6% 0mm 999.9km Southwest  2.0m/s
08:00 Cloudy 83°F 88.4% 0mm 999.9km Southwest  1.3m/s
11:00 Cloudy 86°F 77.1% 0mm 999.9km Southeast  3.3m/s
14:00 Cloudy 91°F 75.1% 0mm 999.9km Southeast  2.7m/s
17:00 Cloudy 86°F 81% 0mm 999.9km Southeast  3.0m/s
20:00 Cloudy 83°F 70.9% 0mm 999.9km Southwest  2.1m/s
23:00 Cloudy 82°F 90% 0mm 999.9km Southwest  1.7m/s
02:00 Cloudy 80°F 93.7% 0mm 999.9km Northwest  2.5m/s
05:00 Cloudy 79°F 95.1% 0mm 999.9km Northwest  2.0m/s
08:00 Cloudy 84°F 87.2% 0mm 999.9km Northwest  1.8m/s
11:00 Cloudy 91°F 72.2% 0mm 999.9km Northeast  2.1m/s
14:00 Cloudy 93°F 65.6% 0mm 999.9km Southeast  3.0m/s
17:00 Cloudy 88°F 74% 0mm 999.9km Southeast  3.5m/s
20:00 Cloudy 84°F 63.5% 0mm 999.9km Northeast  2.7m/s
23:00 Cloudy 82°F 90.2% 0mm 999.9km Northeast  2.6m/s
02:00 Cloudy 79°F 92.1% 0mm 999.9km Northeast  2.3m/s
05:00 Cloudy 81°F 91.7% 0mm 999.9km Northeast  1.9m/s
08:00 Cloudy 84°F 84.3% 0mm 999.9km Northeast  2.0m/s
11:00 Cloudy 87°F 75.2% 0mm 999.9km Northeast  3.1m/s
14:00 Cloudy 91°F 73.5% 0mm 999.9km Northeast  4.0m/s
17:00 Cloudy 86°F 78.6% 0mm 999.9km Northeast  4.0m/s
20:00 Cloudy 82°F 69.2% 0mm 999.9km Northeast  3.5m/s
23:00 Cloudy 80°F 88.8% 0mm 999.9km Northeast  3.6m/s
02:00 Cloudy 80°F 92.7% 0mm 999.9km Northeast  3.2m/s
05:00 Cloudy 79°F 92% 0mm 999.9km Northeast  4.1m/s
08:00 Cloudy 83°F 83.3% 0mm 999.9km Northeast  4.1m/s
11:00 Light rain 85°F 74.7% 2.5mm 999.9km Northeast  4.3m/s
14:00 Overcast 86°F 71.8% 0mm 999.9km Northeast  3.6m/s
17:00 Moderate rain 85°F 74.7% 4.7mm 999.9km Northeast  4.5m/s
20:00 Light rain 81°F 80.4% 2.7mm 999.9km Northeast  4.0m/s
23:00 Moderate rain 78°F 85.1% 4.6mm 999.9km Northeast  4.3m/s
02:00 Overcast 77°F 82.3% 0mm 999.9km Northeast  3.4m/s
05:00 Light rain 78°F 79.9% 2.7mm 999.9km Northeast  3.7m/s
08:00 Light rain 78°F 77.5% 2.6mm 999.9km Northeast  4.0m/s
11:00 Moderate rain 83°F 74.5% 5mm 999.9km Northeast  4.4m/s
14:00 Overcast 84°F 74.6% 0mm 999.9km Northeast  4.4m/s
17:00 Moderate rain 83°F 72% 4.9mm 999.9km Northeast  4.3m/s
20:00 Overcast 80°F 69.6% 0mm 999.9km Northwest  3.4m/s
23:00 Moderate rain 79°F 78.5% 6mm 999.9km Northeast  3.1m/s
02:00 Moderate rain 78°F 81.8% 6mm 999.9km Northwest  3.2m/s
05:00 Moderate rain 77°F 83.6% 6mm 999.9km Northeast  2.5m/s